Tracking 17140 objects as of 1-July-2015
HD Live streaming from Space Station

IRIDIUM 33 DEB

Track IRIDIUM 33 DEB now!
10-day predictions
IRIDIUM 33 DEB is classified as:


NORAD ID: 33869
Int'l Code: 1997-051AN
Perigee: 723.9 km
Apogee: 849.9 km
Inclination: 86.4 °
Period: 100.4 minutes
Semi major axis: 7157 km
RCS: 0.08 m2 (small)
Launch date: September 14, 1997
Source: United States (US)

Note: This is SATELLITE DEBRIS
Your satellite tracking list
Your tracking list is empty





NASA's NSSDC Master Catalog

Two Line Element Set (TLE):
1 33869U 97051AN  15181.18419247  .00002910  00000-0  10004-2 0  9992
2 33869 086.3701 244.5578 0087991 201.1897 158.5647 14.33581761330565

Source of the keplerian elements: AFSPC

N2YO: 239